Wind_Speed
11 10 10 10 9 9 9 10 10 10 11 11 11 11 10 10 9 9 8 8 8 7 7 7 8 8 8 8 9 9 9 9 9 9 9 10 10 11 11 11 11 10 10
12 11 10 10 10 9 9 10 10 11 11 12 12 11 11 11 10 9 8 8 8 8 8 8 9 9 9 10 10 10 10 10 10 10 11 11 12 12 12 12 11 11 11
12 11 12 11 11 10 11 11 12 12 13 13 12 12 12 11 11 11 10 9 9 9 9 10 10 10 9 10 10 11 11 11 12 12 12 13 13 13 13 13 12 12 12
13 13 13 13 12 12 12 13 13 13 13 13 13 13 12 12 13 12 11 10 10 10 10 11 11 11 11 11 11 12 13 13 13 13 14 14 14 14 14 13 13 12 13
15 14 15 14 15 15 14 14 14 14 14 14 13 13 13 13 13 12 12 12 12 12 12 12 12 12 13 13 14 14 14 15 15 15 15 15 15 15 15 14 14 14 13
16 16 15 15 16 16 15 14 15 15 14 14 14 13 14 14 13 12 12 13 13 13 13 13 14 15 15 15 16 15 15 15 16 16 16 16 16 15 15 15 14 14 14
16 16 16 16 17 17 16 16 15 15 15 15 15 14 14 14 14 14 14 14 14 14 14 14 15 16 16 17 17 17 17 17 17 17 17 17 16 16 16 16 16 15 15
17 18 17 17 18 18 17 16 16 16 16 16 16 15 15 16 16 16 16 16 16 16 15 16 16 16 17 17 18 19 19 19 18 18 18 17 17 17 17 17 17 16 17
19 19 19 18 17 17 17 17 17 17 17 17 16 16 16 17 17 17 17 17 17 17 17 17 18 19 19 19 19 19 19 20 19 19 18 18 18 18 18 18 19 18 18
19 19 19 18 17 17 18 18 18 18 18 17 17 17 18 18 18 19 19 19 19 18 19 19 20 20 21 21 21 20 20 20 20 20 20 20 20 20 19 19 19 19 19
20 20 19 19 17 18 18 18 18 18 17 17 17 18 19 19 20 20 21 20 20 20 21 22 22 22 22 22 22 22 21 22 22 21 21 21 21 21 21 20 20 20 20
22 21 19 19 19 18 18 18 18 18 18 17 18 19 19 19 20 21 21 21 21 22 22 23 24 24 23 23 22 23 23 23 23 22 22 22 22 22 21 21 20 20 20
21 21 20 20 19 18 18 18 18 18 18 18 19 19 19 19 20 21 21 21 22 22 23 24 24 24 23 23 23 23 23 23 23 23 23 23 23 22 22 22 22 21 21
19 20 21 20 19 19 19 19 18 18 18 19 19 19 20 20 20 20 20 20 21 22 23 23 24 23 23 23 23 23 23 23 23 23 23 23 23 23 23 23 22 22 22
21 21 22 22 21 21 20 19 19 20 20 20 20 20 20 20 20 20 21 21 21 22 23 23 24 24 24 23 23 23 23 23 23 24 24 24 24 24 23 23 23 23 23
23 23 23 23 23 23 22 22 21 21 21 21 21 20 20 20 20 21 21 22 22 23 23 24 24 24 24 23 23 23 24 24 24 24 24 24 24 24 24 23 23 23 23
23 24 24 23 23 23 24 23 23 22 21 21 21 21 21 21 21 22 22 23 23 23 24 24 24 24 24 24 24 24 24 25 25 25 25 24 25 24 24 24 23 23 23
24 24 25 24 24 24 24 24 24 23 22 22 22 22 22 22 22 23 23 24 24 24 24 25 25 25 25 24 24 24 24 24 25 25 26 26 26 25 25 24 24 24 23
25 25 25 25 25 25 25 25 25 24 24 24 24 24 24 24 24 24 24 25 25 25 25 25 25 26 26 26 26 26 26 26 26 26 26 26 26 26 26 25 25 25 25
27 27 26 26 26 25 26 26 26 26 26 26 26 26 25 25 25 25 26 26 26 26 26 25 26 26 26 26 27 27 27 27 28 28 27 27 27 26 26 26 26 26 25
28 28 28 27 27 27 27 27 27 27 27 28 27 27 26 26 26 27 27 27 27 27 27 26 26 26 27 27 27 27 28 28 28 28 28 28 28 27 27 27 27 27 27
29 30 30 29 30 29 29 28 28 28 29 29 28 27 27 28 28 28 28 28 29 28 28 27 27 27 27 28 28 29 29 29 29 29 29 28 28 28 28 28 28 29 28
32 32 32 31 31 31 30 30 30 30 30 30 30 29 29 29 29 29 29 29 30 30 29 29 28 28 28 29 29 30 30 30 29 29 29 29 29 29 29 29 29 30 29
34 34 33 31 31 31 31 31 31 31 30 30 30 31 30 30 30 30 30 30 30 30 30 30 29 29 29 29 29 30 30 30 30 30 30 30 29 29 29 29 29 29 29
34 34 33 32 31 31 31 31 32 31 31 32 32 31 31 31 31 31 31 31 31 31 31 31 31 31 31 30 30 30 30 30 30 30 29 29 29 29 29 29 29 29 28
33 33 32 31 31 32 32 32 32 32 32 32 32 32 32 32 32 32 32 32 33 33 33 33 33 33 33 32 31 31 30 31 31 30 30 30 30 30 30 30 29 28 28
Wind_Direction
283 288 292 295 297 303 309 309 309 308 308 309 308 304 303 303 299 296 291 292 295 298 300 297 298 290 288 292 296 298 302 304 305 306 306 308 308 308 306 306 307 307 306
280 285 288 290 292 296 304 308 308 307 308 309 307 302 301 301 299 298 292 292 295 296 297 300 300 294 288 293 296 299 300 301 301 302 303 304 304 305 305 304 304 304 305
277 283 284 286 288 295 303 306 306 307 306 305 304 302 300 299 299 298 295 294 294 292 294 294 298 301 301 297 298 299 300 299 298 299 301 302 303 302 301 302 302 301 302
275 280 284 284 286 290 295 297 300 303 303 302 300 300 301 300 298 296 292 291 293 291 291 294 297 299 303 303 301 300 301 301 301 300 301 302 302 302 299 299 299 299 300
275 279 281 282 283 286 289 293 295 298 299 300 298 297 300 299 297 295 291 289 290 289 289 290 293 297 299 300 298 296 299 298 299 300 302 302 301 301 299 299 298 295 295
275 280 281 281 283 286 288 290 291 294 296 297 296 295 298 297 294 293 292 291 292 291 290 289 290 293 294 296 296 295 296 297 298 298 301 301 298 297 295 295 296 295 295
274 280 281 281 283 286 286 288 288 290 292 293 294 293 295 293 292 289 288 288 290 292 293 294 294 295 295 296 295 294 295 296 297 295 298 299 296 295 294 293 293 291 291
274 278 280 279 280 284 286 286 285 286 287 288 290 290 292 292 291 289 288 288 288 288 290 293 295 297 297 297 296 294 293 294 296 296 296 298 296 294 294 293 294 291 290
275 279 280 280 281 284 285 284 284 283 284 284 285 286 290 290 289 289 290 289 289 289 291 291 292 294 295 295 295 293 291 292 294 297 296 296 295 295 294 293 292 291 291
274 277 279 281 280 282 285 283 282 283 282 281 282 284 287 287 288 288 287 286 286 287 288 289 290 290 290 291 292 290 288 290 291 292 293 294 294 292 293 293 290 289 290
275 277 280 279 279 279 280 281 279 282 282 280 282 285 285 286 288 289 288 283 282 284 285 288 289 289 288 287 287 288 288 287 287 287 289 289 291 291 291 293 290 288 288
276 276 277 281 283 282 281 282 278 279 281 281 281 282 285 287 290 289 287 286 286 286 286 289 289 289 287 286 286 286 287 287 285 285 285 287 288 288 288 289 289 287 286
275 276 277 280 280 279 281 283 279 279 279 279 281 282 286 288 290 291 289 286 287 287 288 290 291 291 289 287 286 285 286 286 285 284 283 284 286 286 287 287 287 286 285
271 272 274 275 276 276 278 281 283 282 280 279 283 285 288 289 291 292 291 290 289 290 290 290 292 291 290 290 289 288 287 286 285 284 284 284 285 285 287 286 286 286 284
273 273 272 273 274 275 275 276 279 281 282 282 285 289 289 291 292 293 294 293 292 292 292 291 292 292 291 290 289 289 287 286 286 286 286 286 286 287 287 287 286 284 283
271 271 272 273 274 274 274 275 277 279 280 282 283 285 287 289 292 294 295 298 297 296 295 295 294 293 291 290 290 290 287 286 286 285 285 285 285 286 288 287 286 285 284
270 270 270 272 274 275 275 274 276 278 279 279 280 281 283 285 289 291 294 296 297 298 297 296 296 295 293 292 292 293 288 286 285 285 285 284 284 283 285 286 287 286 285
270 269 270 272 274 276 275 275 276 278 278 278 279 280 283 285 287 290 292 294 296 296 296 296 295 294 293 292 292 292 289 286 285 284 284 284 284 284 285 284 285 286 286
271 270 270 271 274 275 274 275 276 276 276 277 277 279 283 285 287 288 291 293 294 295 295 296 296 295 293 292 292 290 288 286 285 285 284 284 285 283 283 283 282 283 284
270 269 269 270 272 273 274 274 275 275 276 276 277 278 282 284 285 286 289 290 293 294 295 295 296 296 295 292 291 290 289 287 285 284 284 284 284 284 283 282 282 282 282
269 269 269 270 271 272 273 273 274 275 276 276 276 276 280 281 283 285 286 288 291 293 293 294 295 295 294 293 291 290 290 289 285 283 283 283 282 283 283 283 283 283 283
267 268 269 269 270 270 272 273 273 274 275 275 275 275 278 280 281 283 285 288 290 292 292 292 293 293 294 293 292 291 290 290 287 284 283 282 281 281 281 282 282 283 283
266 268 268 268 269 269 270 271 272 272 273 273 274 275 278 280 282 283 285 286 289 290 290 290 290 291 293 293 292 291 291 290 289 286 283 283 281 281 280 280 280 280 280
267 268 268 268 268 268 270 271 271 272 272 273 274 275 276 278 279 281 283 285 287 288 288 289 289 290 292 292 291 291 291 290 289 286 283 282 280 280 280 280 280 280 279
268 268 267 267 266 266 268 271 272 272 272 273 274 274 275 276 277 279 282 284 285 286 287 289 289 289 290 292 293 293 292 291 290 287 284 282 281 281 281 280 280 279 278
267 268 267 267 266 267 269 271 273 273 272 272 273 274 275 276 277 279 281 283 284 286 287 289 289 288 289 290 291 292 292 291 290 287 283 281 281 280 279 279 279 278 278
Height
5881 5880 5880 5880 5880 5880 5879 5878 5878 5877 5876 5876 5875 5875 5874 5874 5873 5873 5873 5873 5873 5872 5872 5872 5871 5871 5871 5871 5870 5870 5869 5869 5868 5868 5867 5867 5866 5865 5864 5863 5862 5861 5861
5879 5879 5879 5879 5879 5878 5878 5877 5876 5875 5875 5874 5873 5873 5873 5872 5872 5871 5871 5871 5871 5871 5871 5870 5870 5870 5869 5869 5868 5868 5867 5867 5866 5866 5866 5865 5864 5863 5862 5861 5860 5859 5858
5876 5876 5877 5877 5876 5876 5876 5875 5874 5874 5873 5872 5871 5871 5871 5870 5870 5869 5869 5869 5869 5869 5869 5869 5868 5868 5867 5867 5867 5866 5866 5865 5865 5864 5863 5862 5861 5860 5859 5858 5858 5857 5856
5874 5874 5874 5874 5874 5874 5874 5873 5872 5872 5871 5870 5870 5869 5868 5868 5867 5867 5867 5867 5867 5867 5867 5867 5866 5866 5865 5865 5864 5864 5864 5863 5862 5861 5860 5859 5858 5857 5857 5856 5855 5854 5854
5871 5872 5872 5872 5871 5871 5871 5870 5870 5869 5869 5868 5867 5867 5866 5866 5865 5865 5864 5864 5864 5864 5864 5864 5864 5863 5863 5862 5862 5861 5861 5860 5859 5858 5858 5856 5855 5854 5853 5853 5852 5851 5851
5869 5869 5869 5869 5868 5868 5867 5867 5867 5866 5866 5865 5865 5865 5864 5863 5863 5862 5862 5862 5862 5862 5862 5861 5861 5860 5860 5859 5859 5858 5857 5857 5856 5855 5854 5853 5852 5851 5850 5849 5848 5848 5847
5866 5866 5866 5866 5865 5865 5865 5865 5864 5863 5863 5862 5862 5862 5861 5860 5860 5860 5859 5859 5859 5858 5858 5858 5857 5857 5856 5856 5855 5854 5854 5853 5852 5851 5850 5849 5848 5847 5846 5846 5845 5844 5844
5863 5863 5863 5862 5862 5861 5861 5861 5860 5860 5860 5859 5859 5858 5858 5857 5857 5856 5856 5855 5855 5855 5855 5854 5854 5853 5852 5852 5851 5851 5850 5849 5848 5848 5847 5846 5845 5844 5843 5842 5840 5839 5840
5859 5859 5858 5858 5858 5858 5857 5857 5856 5856 5856 5856 5855 5855 5855 5854 5853 5853 5852 5852 5851 5851 5850 5850 5850 5849 5848 5848 5847 5846 5846 5845 5844 5843 5843 5841 5840 5839 5838 5837 5836 5836 5836
5854 5854 5854 5854 5854 5854 5853 5853 5852 5852 5852 5852 5852 5851 5851 5850 5849 5849 5848 5848 5847 5846 5846 5845 5845 5844 5843 5843 5842 5842 5841 5841 5840 5839 5838 5837 5836 5835 5834 5833 5832 5831 5831
5850 5850 5850 5850 5849 5849 5849 5848 5848 5848 5848 5848 5848 5847 5846 5846 5845 5844 5843 5843 5842 5842 5841 5840 5839 5838 5838 5837 5837 5836 5836 5835 5835 5834 5833 5832 5831 5830 5829 5828 5827 5826 5826
5845 5845 5844 5844 5844 5844 5844 5844 5843 5844 5844 5844 5843 5843 5842 5841 5840 5840 5839 5838 5837 5836 5835 5834 5833 5833 5832 5831 5831 5830 5830 5829 5829 5828 5828 5827 5826 5825 5824 5823 5822 5821 5821
5840 5840 5840 5840 5840 5840 5839 5839 5838 5838 5839 5839 5838 5838 5837 5837 5836 5835 5834 5833 5832 5831 5830 5829 5828 5827 5826 5825 5825 5824 5824 5823 5822 5822 5821 5821 5820 5819 5819 5817 5816 5816 5815
5835 5836 5836 5836 5836 5836 5835 5834 5834 5834 5834 5834 5833 5833 5833 5832 5831 5830 5829 5828 5827 5826 5825 5824 5823 5821 5821 5820 5819 5818 5817 5817 5816 5816 5815 5814 5814 5813 5813 5812 5811 5810 5810
5830 5830 5831 5831 5831 5831 5831 5831 5830 5830 5829 5828 5828 5828 5828 5827 5826 5825 5824 5823 5822 5821 5819 5818 5817 5816 5815 5814 5813 5812 5812 5811 5810 5809 5809 5808 5807 5807 5806 5806 5805 5804 5804
5825 5825 5825 5825 5825 5826 5826 5825 5825 5824 5824 5823 5823 5823 5823 5823 5822 5820 5819 5818 5816 5815 5814 5813 5811 5810 5809 5808 5807 5806 5805 5805 5804 5803 5802 5801 5800 5800 5800 5799 5799 5798 5798
5819 5819 5819 5820 5820 5819 5819 5819 5819 5819 5818 5817 5817 5817 5818 5817 5816 5815 5814 5813 5811 5810 5808 5807 5805 5804 5803 5802 5801 5800 5799 5798 5797 5797 5796 5795 5794 5793 5793 5793 5792 5792 5791
5812 5813 5813 5813 5813 5813 5813 5813 5813 5812 5812 5812 5811 5812 5812 5811 5811 5810 5808 5807 5805 5804 5802 5801 5799 5798 5797 5796 5794 5793 5792 5791 5790 5790 5789 5788 5788 5787 5787 5786 5786 5785 5785
5805 5806 5806 5806 5807 5807 5807 5806 5806 5806 5806 5806 5806 5806 5806 5805 5804 5803 5802 5801 5799 5798 5796 5795 5793 5792 5790 5789 5788 5787 5786 5785 5784 5783 5782 5781 5781 5780 5779 5779 5779 5778 5778
5798 5799 5799 5800 5800 5800 5800 5800 5800 5800 5800 5800 5799 5799 5799 5799 5798 5797 5796 5794 5793 5791 5790 5788 5787 5785 5783 5782 5780 5779 5778 5777 5776 5775 5775 5774 5773 5773 5772 5772 5771 5771 5771
5791 5791 5792 5792 5792 5793 5793 5793 5793 5793 5793 5793 5792 5792 5792 5792 5791 5790 5789 5787 5786 5784 5783 5781 5780 5778 5776 5775 5773 5771 5770 5769 5768 5768 5767 5766 5766 5765 5765 5764 5764 5763 5763
5784 5784 5784 5784 5785 5785 5785 5786 5786 5786 5786 5786 5785 5785 5785 5785 5784 5783 5782 5780 5778 5777 5775 5774 5772 5770 5769 5767 5765 5764 5762 5761 5760 5759 5759 5758 5758 5757 5757 5756 5756 5755 5755
5776 5776 5775 5776 5776 5777 5777 5778 5778 5778 5778 5778 5777 5777 5777 5776 5776 5775 5774 5772 5771 5769 5768 5766 5764 5763 5761 5760 5758 5756 5754 5753 5752 5751 5750 5750 5749 5748 5748 5748 5747 5747 5746
5766 5767 5767 5767 5767 5768 5768 5769 5769 5769 5769 5769 5769 5769 5769 5768 5767 5766 5765 5764 5762 5761 5759 5758 5756 5755 5753 5751 5749 5747 5745 5744 5743 5742 5741 5740 5740 5739 5739 5738 5738 5737 5737
5756 5757 5757 5757 5758 5759 5760 5760 5760 5760 5760 5760 5760 5760 5760 5759 5758 5758 5756 5755 5754 5752 5751 5749 5747 5746 5744 5742 5740 5738 5737 5735 5734 5733 5732 5731 5731 5730 5730 5729 5729 5728 5728
5746 5747 5747 5748 5749 5750 5751 5751 5751 5751 5751 5751 5751 5751 5750 5750 5749 5749 5748 5746 5745 5743 5741 5740 5738 5736 5735 5733 5731 5730 5728 5726 5725 5724 5723 5722 5721 5721 5721 5720 5720 5719 5719